This is the latest recevied weather packets stored in our database for station/object DL7AND-2. If no packets are shown the sender has not sent any weather packets the latest 10 day(s).
| Time | Temp. | Humidity | Pressure | Rain* | Wind** | Luminosity | Snow |
|---|---|---|---|---|---|---|---|
| 1778248307 | 15.56° C | 49% | 1019.2 hPa | 0 mm | - | - | - |
| 1778247731 | 15.56° C | 49% | 1019.4 hPa | 0 mm | - | - | - |
| 1778247127 | 15.56° C | 49% | 1019.5 hPa | 0 mm | - | - | - |
| 1778246591 | 15.56° C | 48% | 1019.4 hPa | 0 mm | - | - | - |
| 1778245907 | 15.56° C | 47% | 1019.5 hPa | 0 mm | - | - | - |
| 1778245331 | 16.67° C | 46% | 1019.6 hPa | 0 mm | - | - | - |
| 1778244727 | 16.67° C | 48% | 1019.6 hPa | 0 mm | - | - | - |
| 1778244131 | 16.11° C | 51% | 1019.8 hPa | 0 mm | - | - | - |
| 1778243507 | 15° C | 51% | 1019.9 hPa | 0 mm | - | - | - |
| 1778242931 | 15° C | 51% | 1020.1 hPa | 0 mm | - | - | - |
| 1778242307 | 15° C | 52% | 1019.9 hPa | 0 mm | - | - | - |
| 1778241731 | 14.44° C | 53% | 1020.1 hPa | 0 mm | - | - | - |
| 1778241107 | 13.89° C | 55% | 1019.8 hPa | 0 mm | - | - | - |
| 1778240551 | 13.33° C | 55% | 1019.9 hPa | 0 mm | - | - | - |
| 1778239907 | 13.33° C | 55% | 1019.9 hPa | 0 mm | - | - | - |
| 1778239391 | 13.89° C | 55% | 1019.9 hPa | 0 mm | - | - | - |
| 1778238707 | 13.33° C | 54% | 1019.9 hPa | 0 mm | - | - | - |
| 1778238131 | 13.89° C | 53% | 1020 hPa | 0 mm | - | - | - |
| 1778237319 | 13.89° C | 52% | 1020.2 hPa | 0 mm | - | - | - |
| 1778236932 | 13.89° C | 53% | 1020.4 hPa | 0 mm | - | - | - |
| 1778236328 | 13.89° C | 53% | 1020.2 hPa | 0 mm | - | - | - |
| 1778235732 | 13.89° C | 53% | 1020.3 hPa | 0 mm | - | - | - |
| 1778235108 | 13.89° C | 53% | 1020.1 hPa | 0 mm | - | - | - |
| 1778234532 | 13.33° C | 54% | 1020.3 hPa | 0 mm | - | - | - |
| 1778233948 | 13.33° C | 53% | 1020.3 hPa | 0 mm | - | - | - |
* Rain latest hour (hover to see other rain measurements)
** Current wind speed in m/s (hover to see current wind gust speed)